N0JY-4 Weather Reports


Display with metric or nautical units.
time (UTC)temp
F
wind
direction
speed
MPH
gust
MPH
rain 1hr
in
rain 24hr
in
rain mn
in
humidity
%
barometer
mb
20180721193242 108 170 7.0 6.0 0.00 0.00 0.00 16 1013.5
20180721192515 107 212 3.0 7.0 0.00 0.00 0.00 16 1013.5
20180721191749 106 177 7.0 5.0 0.00 0.00 0.00 17 1013.7
20180721191021 106 166 5.0 4.0 0.00 0.00 0.00 18 1013.7
20180721190250 106 113 3.0 2.0 0.00 0.00 0.00 17 1013.8
20180721185524 106 191 6.0 6.0 0.00 0.00 0.00 17 1013.8
20180721184757 104 304 2.0 1.0 0.00 0.00 0.00 17 1013.8
20180721184030 104 259 5.0 5.0 0.00 0.00 0.00 16 1013.9
20180721183258 104 249 6.0 6.0 0.00 0.00 0.00 16 1014.0
20180721182531 104 222 8.0 9.0 0.00 0.00 0.00 20 1014.1
20180721181805 103 201 8.0 9.0 0.00 0.00 0.00 19 1014.1
20180721181038 103 240 8.0 6.0 0.00 0.00 0.00 20 1014.2
20180721174814 104 262 3.0 3.0 0.00 0.00 0.00 21 1014.6
20180721173317 103 215 8.0 10.0 0.00 0.00 0.00 22 1014.5
20180721172550 102 245 9.0 5.0 0.00 0.00 0.00 21 1014.7
20180721171824 103 172 8.0 12.0 0.00 0.00 0.00 25 1014.9
20180721171057 101 179 10.0 10.0 0.00 0.00 0.00 24 1014.9
20180721170324 102 195 8.0 6.0 0.00 0.00 0.00 25 1015.1
20180721164831 102 238 5.0 4.0 0.00 0.00 0.00 29 1015.2
20180721164105 98 201 6.0 7.0 0.00 0.00 0.00 29 1015.3
20180721163332 98 207 6.0 3.0 0.00 0.00 0.00 33 1015.4
20180721162607 99 204 9.0 12.0 0.00 0.00 0.00 32 1015.5
20180721161839 97 180 7.0 9.0 0.00 0.00 0.00 34 1015.7
20180721161112 96 201 7.0 7.0 0.00 0.00 0.00 36 1015.8
20180721160340 98 203 3.0 6.0 0.00 0.00 0.00 37 1015.9
20180721155614 96 217 5.0 8.0 0.00 0.00 0.00 38 1015.8
20180721154847 95 212 7.0 6.0 0.00 0.00 0.00 40 1015.8
20180721153419 92 228 6.0 7.0 0.00 0.00 0.00 42 1015.9
20180721153347 92 228 6.0 7.0 0.00 0.00 0.00 42 1015.9
20180721152616 93 211 8.0 7.0 0.00 0.00 0.00 43 1015.9
20180721152139 92 201 7.0 6.0 0.00 0.00 0.00 44 1015.8
20180721151934 92 201 7.0 6.0 0.00 0.00 0.00 44 1015.8
20180721151847 92 201 7.0 6.0 0.00 0.00 0.00 44 1015.8
20180721151120 93 226 8.0 7.0 0.00 0.00 0.00 45 1015.9
20180721150444 92 214 8.0 5.0 0.00 0.00 0.00 45 1016.1
20180721150348 92 214 8.0 5.0 0.00 0.00 0.00 45 1016.1
20180721145620 92 210 9.0 7.0 0.00 0.00 0.00 45 1016.0
20180721144851 91 207 9.0 12.0 0.00 0.00 0.00 45 1016.0
20180721144123 90 231 10.0 12.0 0.00 0.00 0.00 46 1016.1
20180721143346 88 187 6.0 7.0 0.00 0.00 0.00 47 1016.1
20180721142618 88 198 6.0 6.0 0.00 0.00 0.00 47 1016.0
20180721141851 88 184 5.0 6.0 0.00 0.00 0.00 48 1016.2
20180721141121 87 179 6.0 5.0 0.00 0.00 0.00 49 1016.1
20180721135529 85 181 9.0 8.0 0.00 0.00 0.00 51 1016.0
20180721134831 85 181 9.0 8.0 0.00 0.00 0.00 51 1016.0
20180721134138 86 179 4.0 1.0 0.00 0.00 0.00 53 1015.9
20180721134100 86 179 4.0 1.0 0.00 0.00 0.00 53 1015.9
20180721133320 85 181 2.0 3.0 0.00 0.00 0.00 54 1015.8
20180721131812 83 173 3.0 4.0 0.00 0.00 0.00 55 1015.8
20180721131044 84 167 3.0 2.0 0.00 0.00 0.00 55 1015.7
20180721130539 84 183 4.0 4.0 0.00 0.00 0.00 56 1015.6
20180721130313 84 183 4.0 4.0 0.00 0.00 0.00 56 1015.6
20180721125547 82 153 2.0 2.0 0.00 0.00 0.00 59 1015.6
20180721124820 82 136 0.0 2.0 0.00 0.00 0.00 61 1015.5
20180721124050 78 73 0.0 0.0 0.00 0.00 0.00 61 1015.5
20180721123317 78 73 0.0 0.0 0.00 0.00 0.00 62 1015.3
20180721122951 80 73 0.0 0.0 0.00 0.00 0.00 61 1015.4
20180721122713 80 73 0.0 0.0 0.00 0.00 0.00 61 1015.4
20180721122548 80 73 0.0 0.0 0.00 0.00 0.00 61 1015.4
20180721122327 79 73 0.0 0.0 0.00 0.00 0.00 60 1015.5
20180721121818 79 73 0.0 0.0 0.00 0.00 0.00 60 1015.5
20180721121051 81 73 0.0 0.0 0.00 0.00 0.00 59 1015.3
20180721120510 81 75 2.0 1.0 0.00 0.00 0.00 58 1015.2
20180721120409 81 75 2.0 1.0 0.00 0.00 0.00 58 1015.2
20180721120317 81 75 2.0 1.0 0.00 0.00 0.00 58 1015.2
20180721115549 81 141 4.0 2.0 0.00 0.00 0.00 59 1015.2
20180721114820 79 132 3.0 2.0 0.00 0.00 0.00 60 1015.1
20180721114050 80 91 2.0 1.0 0.00 0.00 0.00 62 1015.0
20180721113319 79 80 0.0 0.0 0.00 0.00 0.00 63 1014.9
20180721112553 78 80 0.0 0.0 0.00 0.00 0.00 62 1014.9
20180721111151 77 80 0.0 0.0 0.00 0.00 0.00 62 1014.9
20180721111058 77 80 0.0 0.0 0.00 0.00 0.00 62 1014.9
20180721105559 78 108 2.0 3.0 0.00 0.00 0.00 63 1014.6
20180721104831 77 39 0.0 0.0 0.00 0.00 0.00 63 1014.7
20180721104103 78 30 0.0 0.0 0.00 0.00 0.00 63 1014.7
20180721103327 79 30 0.0 0.0 0.00 0.00 0.00 63 1014.5
20180721101826 79 30 0.0 0.0 0.00 0.00 0.00 61 1014.4
20180721101143 79 30 0.0 0.0 0.00 0.00 0.00 62 1014.5
20180721101059 79 30 0.0 0.0 0.00 0.00 0.00 62 1014.5
20180721094056 79 30 0.0 0.0 0.00 0.00 0.00 59 1014.1
20180721092557 80 30 0.0 0.0 0.00 0.00 0.00 59 1014.0
20180721091825 80 30 0.0 0.0 0.00 0.00 0.00 57 1014.0
20180721091057 82 30 0.0 0.0 0.00 0.00 0.00 55 1013.9
20180721090322 81 30 0.0 0.0 0.00 0.00 0.00 55 1013.7
20180721085556 81 30 0.0 0.0 0.00 0.00 0.00 54 1013.7
20180721084826 82 30 0.0 0.0 0.00 0.00 0.00 54 1013.7
20180721084100 82 30 1.0 0.0 0.00 0.00 0.00 54 1013.6
20180721083328 83 30 0.0 0.0 0.00 0.00 0.00 53 1013.5
20180721082556 83 86 2.0 2.0 0.00 0.00 0.00 51 1013.3
20180721081827 83 100 2.0 2.0 0.00 0.00 0.00 49 1013.2
20180721081054 83 129 3.0 2.0 0.00 0.00 0.00 48 1013.2
20180721080317 85 128 3.0 3.0 0.00 0.00 0.00 49 1013.2
20180721074819 85 115 4.0 3.0 0.00 0.00 0.00 47 1013.3
20180721074053 86 104 5.0 4.0 0.00 0.00 0.00 46 1013.2
20180721073317 85 124 3.0 4.0 0.00 0.00 0.00 44 1013.2
20180721072550 86 115 4.0 3.0 0.00 0.00 0.00 45 1013.2
20180721071824 86 115 4.0 4.0 0.00 0.00 0.00 44 1013.2
20180721070317 87 97 0.0 0.0 0.00 0.00 0.00 44 1013.0
20180721065550 87 35 0.0 0.0 0.00 0.00 0.00 42 1013.2
20180721064821 87 35 0.0 0.0 0.00 0.00 0.00 42 1013.2
20180721064055 87 35 0.0 0.0 0.00 0.00 0.00 41 1013.3
20180721063318 87 35 0.0 0.0 0.00 0.00 0.00 41 1013.2
20180721062551 87 35 0.0 0.0 0.00 0.00 0.00 40 1013.2
20180721061906 89 65 3.0 2.0 0.00 0.00 0.00 39 1013.4
20180721061823 89 65 3.0 2.0 0.00 0.00 0.00 39 1013.4
20180721061056 89 75 2.0 3.0 0.00 0.00 0.00 38 1013.3
20180721060325 89 117 2.0 2.0 0.00 0.00 0.00 37 1013.3
20180721054114 89 174 4.0 4.0 0.00 0.00 0.00 35 1013.0
20180721053333 90 158 7.0 6.0 0.00 0.00 0.00 35 1012.9
20180721052606 90 162 6.0 5.0 0.00 0.00 0.00 34 1013.0
20180721051839 89 127 6.0 7.0 0.00 0.00 0.00 33 1013.0
20180721051112 91 132 7.0 7.0 0.00 0.00 0.00 33 1013.0
20180721050343 91 173 7.0 6.0 0.00 0.00 0.00 32 1012.8
20180721045616 92 150 8.0 9.0 0.00 0.00 0.00 32 1012.8
20180721044846 93 150 7.0 6.0 0.00 0.00 0.00 31 1012.9
20180721044120 93 162 6.0 6.0 0.00 0.00 0.00 31 1012.9
20180721043347 93 143 7.0 6.0 0.00 0.00 0.00 30 1012.9
20180721041854 94 170 7.0 7.0 0.00 0.00 0.00 30 1012.9
20180721041127 92 183 7.0 7.0 0.00 0.00 0.00 29 1012.9
20180721040355 95 131 8.0 9.0 0.00 0.00 0.00 28 1012.9
20180721034901 95 143 9.0 7.0 0.00 0.00 0.00 27 1012.8
20180721034133 95 160 8.0 6.0 0.00 0.00 0.00 27 1012.8
20180721033401 95 149 10.0 11.0 0.00 0.00 0.00 26 1012.9
20180721032632 96 158 8.0 8.0 0.00 0.00 0.00 26 1012.8
20180721031904 96 136 9.0 6.0 0.00 0.00 0.00 25 1012.8
20180721030406 94 167 7.0 8.0 0.00 0.00 0.00 25 1012.6
20180721025639 96 156 7.0 7.0 0.00 0.00 0.00 25 1012.5
20180721024911 96 145 7.0 7.0 0.00 0.00 0.00 24 1012.5
20180721024145 96 150 7.0 7.0 0.00 0.00 0.00 24 1012.5
20180721023409 96 141 7.0 6.0 0.00 0.00 0.00 23 1012.3
20180721022642 99 167 7.0 6.0 0.00 0.00 0.00 22 1012.2
20180721021911 99 138 6.0 7.0 0.00 0.00 0.00 21 1012.2
20180721021144 99 143 6.0 5.0 0.00 0.00 0.00 21 1012.1
20180721020413 98 150 6.0 4.0 0.00 0.00 0.00 21 1012.0
20180721015646 101 160 5.0 4.0 0.00 0.00 0.00 20 1012.0
20180721014919 100 129 5.0 5.0 0.00 0.00 0.00 19 1011.9
20180721014153 101 136 5.0 5.0 0.00 0.00 0.00 19 1011.9
20180721013422 102 131 7.0 6.0 0.00 0.00 0.00 18 1011.8
20180721012654 103 143 5.0 7.0 0.00 0.00 0.00 17 1011.7
20180721011928 104 136 7.0 9.0 0.00 0.00 0.00 17 1011.7
20180721011201 104 120 4.0 4.0 0.00 0.00 0.00 17 1011.6
20180721010431 104 146 5.0 4.0 0.00 0.00 0.00 16 1011.6
20180721005704 105 172 4.0 4.0 0.00 0.00 0.00 15 1011.5
20180721004934 105 179 4.0 3.0 0.00 0.00 0.00 15 1011.5
20180721004208 105 173 5.0 8.0 0.00 0.00 0.00 14 1011.4
20180721003435 105 176 5.0 7.0 0.00 0.00 0.00 14 1011.3
20180721002708 105 159 6.0 7.0 0.00 0.00 0.00 13 1011.3
20180721001942 105 207 7.0 5.0 0.00 0.00 0.00 13 1011.3
20180721000442 107 195 7.0 8.0 0.00 0.00 0.00 13 1011.3
20180720235716 106 172 7.0 6.0 0.00 0.00 0.00 13 1011.2
20180720234953 107 173 7.0 6.0 0.00 0.00 0.00 13 1011.2
20180720234223 107 169 7.0 6.0 0.00 0.00 0.00 13 1011.3
20180720233453 107 131 8.0 8.0 0.00 0.00 0.00 12 1011.2
20180720232724 109 184 6.0 6.0 0.00 0.00 0.00 13 1011.3
20180720231958 106 184 8.0 7.0 0.00 0.00 0.00 12 1011.3
20180720231231 108 190 7.0 6.0 0.00 0.00 0.00 12 1011.3
20180720230459 108 146 9.0 7.0 0.00 0.00 0.00 12 1011.3
20180720225854 107 174 6.0 8.0 0.00 0.00 0.00 11 1011.3
20180720225732 107 174 6.0 8.0 0.00 0.00 0.00 11 1011.3
20180720225005 107 187 10.0 8.0 0.00 0.00 0.00 12 1011.4
20180720224239 108 160 8.0 11.0 0.00 0.00 0.00 12 1011.4
20180720223507 107 214 9.0 10.0 0.00 0.00 0.00 11 1011.4
20180720222010 108 184 7.0 6.0 0.00 0.00 0.00 11 1011.5
20180720221241 108 167 8.0 11.0 0.00 0.00 0.00 10 1011.5
20180720220507 109 180 9.0 10.0 0.00 0.00 0.00 11 1011.7
20180720215740 107 167 10.0 8.0 0.00 0.00 0.00 9 1011.6
20180720213515 106 181 9.0 8.0 0.00 0.00 0.00 13 1011.7
20180720212749 107 145 9.0 9.0 0.00 0.00 0.00 13 1011.7
20180720212022 109 139 9.0 9.0 0.00 0.00 0.00 14 1011.7
20180720211255 107 183 12.0 10.0 0.00 0.00 0.00 14 1011.9
20180720210524 108 150 10.0 12.0 0.00 0.00 0.00 15 1011.8
20180720205757 108 129 10.0 7.0 0.00 0.00 0.00 15 1011.9
20180720205030 110 210 6.0 9.0 0.00 0.00 0.00 15 1012.1
20180720204304 107 167 5.0 8.0 0.00 0.00 0.00 16 1012.0
20180720202806 109 134 5.0 5.0 0.00 0.00 0.00 15 1012.1
20180720200541 107 153 9.0 9.0 0.00 0.00 0.00 16 1012.3
20180720195814 106 155 9.0 7.0 0.00 0.00 0.00 15 1012.2
20180720195047 109 138 5.0 5.0 0.00 0.00 0.00 15 1012.4
20180720194321 108 201 9.0 7.0 0.00 0.00 0.00 14 1012.4
20180720193550 105 183 9.0 6.0 0.00 0.00 0.00 15 1012.5